Location: Summit Observatory
(39.5293°N, 75.7290°W)
Time: 08:54:23
(UTC-04:00)

Amateur Radio Satellites - All Passes

Search period start: 26 May 2017 08:24
Search period end: 27 May 2017 08:24
Location: Summit Observatory, 39.5293°N, 75.7290°W

Satellite Date Start Highest point End Downlink Frequencies (MHz)
Time Altitude Azimuth
XW-2B 26 May 08:25:41 08:27:44 14° 294° (WNW) 08:29:47 145.730 - 145.750
NUDT-PHONESAT 26 May 08:39:55 08:41:22 12° 295° (WNW) 08:42:49 437.300
XW-2F 26 May 08:40:09 08:40:37 10° 296° (WNW) 08:41:05 145.980 - 146.000
Oscar 11 26 May 08:47:00 08:49:09 13° 91° (E) 08:51:17 .
SO-50 26 May 08:56:17 08:59:52 23° 248° (WSW) 09:03:27 436.795
NO-84 26 May 08:59:57 09:04:18 67° 134° (SE) 09:08:35 435.350 FM
CUTE 1.7 + AOD 2 26 May 09:02:56 09:06:58 41° 287° (WNW) 09:10:56 437.475
UNISAT 6 26 May 09:10:38 09:13:11 16° 65° (ENE) 09:15:46 437.425
AO-73 26 May 09:11:21 09:15:30 34° 97° (E) 09:19:39 145.935
HO-68 26 May 09:13:10 09:20:15 62° 290° (WNW) 09:27:18 435.675
STRAND 1 26 May 09:14:46 09:16:36 12° 270° (W) 09:18:26 437.568
XW-2A 26 May 09:16:49 09:19:37 23° 289° (WNW) 09:22:25 145.665 - 145.685
RS-15 26 May 09:18:30 09:28:33 28° 27° (NNE) 09:38:16 29.354- 29.394
AAUSAT CUBESAT 2 26 May 09:18:45 09:22:55 87° 110° (ESE) 09:27:01 437.432
ZACube-1 26 May 09:24:49 09:29:17 53° 100° (E) 09:33:45 437.345
PRISM 26 May 09:26:12 09:29:47 29° 70° (ENE) 09:33:23 437.425
M-CUBED/EXP-1 PRIME 26 May 09:33:55 09:36:47 17° 260° (W) 09:39:33 437.505
CUBEBUG 2 26 May 09:35:17 09:39:35 41° 288° (WNW) 09:43:58 437.445
DELFI C3 26 May 09:43:38 09:45:46 14° 92° (E) 09:47:52 145.870
UWE-3 26 May 09:46:33 09:51:00 51° 286° (WNW) 09:55:30 435.000/436.395/437.385
FO-29 26 May 09:51:10 09:56:05 46° 71° (ENE) 10:01:07 435.910
SEEDS 26 May 09:54:04 09:56:58 18° 293° (WNW) 09:59:51 437.485
EO-88 26 May 09:54:32 09:56:07 12° 92° (E) 09:57:43 145.990 - 145.960
TIGRISAT 26 May 10:13:36 10:17:50 71° 75° (ENE) 10:22:09 435.000
Oscar 11 26 May 10:21:19 10:25:33 50° 286° (WNW) 10:29:45 .
NO-84 26 May 10:38:44 10:42:15 23° 330° (NNW) 10:45:39 435.350 FM
QB50P2 26 May 10:44:37 10:46:05 12° 63° (ENE) 10:47:33 145.880/145.840
UNISAT 6 26 May 10:45:25 10:49:30 44° 261° (W) 10:53:40 437.425
AO-73 26 May 10:47:58 10:51:31 23° 292° (WNW) 10:55:04 145.935
PRISM 26 May 11:01:55 11:05:04 21° 265° (W) 11:08:13 437.425
ZACube-1 26 May 11:02:28 11:05:06 15° 295° (WNW) 11:07:45 437.345
HO-68 26 May 11:04:23 11:06:33 12° 310° (NW) 11:08:43 435.675
AIST 2D 26 May 11:09:27 11:12:40 34° 73° (ENE) 11:15:55 435.315
DELFI C3 26 May 11:17:02 11:20:42 38° 287° (WNW) 11:24:20 145.870
EO-79 26 May 11:19:37 11:23:06 26° 69° (ENE) 11:26:35 145.935-145.965
EO-88 26 May 11:26:32 11:29:58 38° 287° (WNW) 11:33:23 145.990 - 145.960
RS-15 26 May 11:31:25 11:43:41 73° 55° (NE) 11:55:17 29.354- 29.394
FO-29 26 May 11:37:57 11:41:31 19° 268° (W) 11:45:07 435.910
YUBILEINY 26 May 11:47:36 11:55:23 33° 71° (ENE) 12:03:06 435.215
NANOSAT C BR1 26 May 12:04:19 12:08:29 78° 74° (ENE) 12:12:40 145.865
POLYITAN 1 26 May 12:08:29 12:12:39 84° 258° (WSW) 12:16:53 437.675
ESTCUBE 1 26 May 12:08:34 12:12:50 41° 98° (E) 12:17:03 437.505/2401.250
LO-87 26 May 12:10:46 12:14:21 89° 102° (ESE) 12:17:54 145.935 - 145.965
DUCHIFAT 1 26 May 12:15:14 12:19:23 87° 258° (WSW) 12:23:35 145.980
QB50P2 26 May 12:17:12 12:21:20 60° 259° (W) 12:25:31 145.880/145.840
BUGSAT 1 26 May 12:35:12 12:39:00 44° 73° (ENE) 12:42:49 437.445
Gurwin Techsat 1B 26 May 12:41:22 12:44:05 14° 61° (ENE) 12:46:49 435.225
AIST 2D 26 May 12:44:30 12:46:00 12° 268° (W) 12:47:32 435.315
AO-85 26 May 12:53:39 12:56:29 18° 47° (NE) 12:59:24 145.980
EO-79 26 May 12:55:22 12:58:47 24° 265° (W) 13:02:14 145.935-145.965
SPROUT 26 May 13:02:42 13:06:45 40° 98° (E) 13:10:47 437.525
Oscar 19 26 May 13:03:56 13:08:41 37° 69° (ENE) 13:13:26 437.125/150
VELOX 1 26 May 13:05:54 13:10:05 42° 99° (E) 13:14:14 145.980
50 SAT 26 May 13:27:17 13:30:27 35° 99° (E) 13:33:34 437.505
UKube-1 26 May 13:36:05 13:39:21 21° 95° (E) 13:42:36 .
O/OREOS (USA 219) 26 May 13:39:02 13:43:02 30° 61° (ENE) 13:46:59 437.305
DX 1 26 May 13:42:34 13:46:35 36° 98° (E) 13:50:35 434.975-435.025
YUBILEINY 26 May 13:44:00 13:52:28 54° 270° (W) 14:00:56 435.215
RS-15 26 May 13:45:09 13:55:00 31° 257° (WSW) 14:04:32 29.354- 29.394
ESTCUBE 1 26 May 13:46:12 13:49:18 19° 294° (WNW) 13:52:23 437.505/2401.250
BEESAT 2 26 May 13:53:35 13:53:52 10° 40° (NE) 13:54:09 435.950
NO-84 26 May 13:59:46 14:00:21 10° 12° (NNE) 14:00:56 435.350 FM
ITAMSAT 1 26 May 14:07:55 14:10:04 13° 60° (ENE) 14:12:13 435.822/435.867
BEESAT 3 26 May 14:11:45 14:15:25 33° 52° (NE) 14:19:02 437.485
BUGSAT 1 26 May 14:12:46 14:14:35 13° 268° (W) 14:16:24 437.445
AO-7 26 May 14:17:40 14:24:30 30° 57° (ENE) 14:31:21 .
Gurwin Techsat 1B 26 May 14:18:03 14:23:21 75° 258° (WSW) 14:28:41 435.225
AO-85 26 May 14:33:09 14:37:03 45° 243° (WSW) 14:41:09 145.980
SPROUT 26 May 14:39:33 14:42:19 17° 294° (WNW) 14:45:05 437.525
VELOX 1 26 May 14:43:20 14:46:10 17° 295° (WNW) 14:49:01 145.980
Oscar 19 26 May 14:43:45 14:48:02 26° 265° (W) 14:52:21 437.125/150
50 SAT 26 May 15:01:41 15:02:57 12° 294° (WNW) 15:04:13 437.505
UKube-1 26 May 15:11:35 15:15:24 32° 290° (WNW) 15:19:12 .
O/OREOS (USA 219) 26 May 15:18:38 15:22:17 24° 258° (WSW) 15:25:53 437.305
DX 1 26 May 15:19:26 15:22:30 19° 294° (WNW) 15:25:33 434.975-435.025
BEESAT 2 26 May 15:28:14 15:32:19 80° 58° (ENE) 15:36:20 435.950
NO-84 26 May 15:35:41 15:39:03 30° 33° (NNE) 15:42:10 435.350 FM
ITUPSAT 1 26 May 15:41:42 15:46:16 41° 99° (E) 15:50:48 437.325
ITAMSAT 1 26 May 15:43:38 15:48:48 82° 256° (WSW) 15:54:00 435.822/435.867
BEESAT 3 26 May 15:49:47 15:52:47 21° 249° (WSW) 15:55:46 437.485
MOZHAYETS 4 26 May 15:59:23 16:03:41 37° 97° (E) 16:07:57
AO-7 26 May 16:08:30 16:16:41 64° 256° (WSW) 16:24:56 .
BEESAT 26 May 16:15:13 16:20:02 86° 284° (WNW) 16:24:50 436.000
CUBESAT XI-V 26 May 16:45:33 16:48:58 20° 93° (E) 16:52:20 437.345
KKS-1 26 May 16:54:28 16:57:41 19° 94° (E) 17:00:52 437.445
NO-84 26 May 17:13:25 17:16:33 28° 233° (SW) 17:19:27 435.350 FM
ITUPSAT 1 26 May 17:20:14 17:23:47 21° 295° (WNW) 17:27:20 437.325
XW-2D 26 May 17:23:50 17:26:03 15° 67° (ENE) 17:28:17 145.860 - 145.880
STARS 26 May 17:25:54 17:28:54 18° 94° (E) 17:31:53 437.465
XW-2B 26 May 17:31:22 17:33:57 18° 68° (ENE) 17:36:33 145.730 - 145.750
MOZHAYETS 4 26 May 17:37:04 17:40:35 22° 293° (WNW) 17:44:05
CUTE-I 26 May 17:38:44 17:43:09 28° 66° (ENE) 17:47:34 437.470
NUDT-PHONESAT 26 May 17:43:19 17:45:56 18° 68° (ENE) 17:48:35 437.300
XW-2F 26 May 17:43:29 17:46:33 23° 70° (ENE) 17:49:37 145.980 - 146.000
XW-2C 26 May 17:44:20 17:47:31 25° 70° (ENE) 17:50:41 145.795 - 145.815
KAITUO 1B 26 May 17:51:13 17:54:16 24° 70° (ENE) 17:57:20 145.475/437.950
HO-68 26 May 17:55:57 18:00:22 18° 55° (NE) 18:04:47 435.675
DOVE 4 26 May 17:56:54 18:01:33 75° 76° (ENE) 18:05:56 437.250
PCSat 26 May 18:15:56 18:18:47 15° 103° (ESE) 18:21:39 145.827
LilacSat-2 26 May 18:21:37 18:25:26 81° 77° (ENE) 18:29:19 437.200
CUTE 1.7 + AOD 2 26 May 18:21:51 18:22:54 11° 63° (ENE) 18:23:56 437.475
CUBESAT XI-V 26 May 18:22:09 18:26:27 38° 289° (WNW) 18:30:42 437.345
KKS-1 26 May 18:30:16 18:34:19 36° 289° (WNW) 18:38:22 437.445
XW-2D 26 May 18:56:24 18:59:55 36° 262° (W) 19:03:29 145.860 - 145.880
CUBEBUG 2 26 May 18:58:21 19:00:11 13° 64° (ENE) 19:02:04 437.445
STARS 26 May 19:01:17 19:05:22 38° 289° (WNW) 19:09:26 437.465
XW-2B 26 May 19:04:32 19:07:54 30° 263° (W) 19:11:18 145.730 - 145.750
SEEDS 26 May 19:08:37 19:11:57 23° 69° (ENE) 19:15:18 437.485
UWE-3 26 May 19:10:27 19:10:41 10° 62° (ENE) 19:10:55 435.000/436.395/437.385
NUDT-PHONESAT 26 May 19:16:28 19:19:39 27° 264° (W) 19:22:52 437.300
XW-2F 26 May 19:17:37 19:20:36 22° 265° (W) 19:23:36 145.980 - 146.000
CUTE-I 26 May 19:18:10 19:23:01 36° 262° (W) 19:27:54 437.470
XW-2C 26 May 19:18:47 19:21:39 20° 266° (W) 19:24:33 145.795 - 145.815
KAITUO 1B 26 May 19:25:17 19:28:12 21° 265° (W) 19:31:09 145.475/437.950
HO-68 26 May 19:39:55 19:47:07 90° 56° (NE) 19:54:22 435.675
STRAND 1 26 May 19:43:41 19:48:02 27° 96° (E) 19:52:22 437.568
XW-2A 26 May 19:46:17 19:49:37 89° 243° (WSW) 19:53:02 145.665 - 145.685
Tancredo 1 26 May 19:48:38 19:51:14 25° 134° (SE) 19:53:51 437.200
CUTE 1.7 + AOD 2 26 May 19:53:52 19:58:07 69° 259° (WSW) 20:02:25 437.475
PCSat 26 May 19:56:07 20:01:31 72° 300° (WNW) 20:06:57 145.827
AO-73 26 May 20:06:24 20:09:40 22° 68° (ENE) 20:13:01 145.935
AAUSAT CUBESAT 2 26 May 20:07:29 20:11:30 48° 74° (ENE) 20:15:33 437.432
ISS 26 May 20:19:41 20:22:44 35° 135° (SE) 20:25:46 437.550
ZACube-1 26 May 20:19:46 20:23:35 34° 71° (ENE) 20:27:29 437.345
CUBEBUG 2 26 May 20:32:16 20:36:19 53° 260° (W) 20:40:27 437.445
UWE-3 26 May 20:42:20 20:46:28 71° 258° (WSW) 20:50:45 435.000/436.395/437.385
SEEDS 26 May 20:43:46 20:47:28 29° 264° (W) 20:51:11 437.485
M-CUBED/EXP-1 PRIME 26 May 21:12:21 21:15:03 24° 102° (ESE) 21:17:45 437.505
Oscar 11 26 May 21:14:31 21:18:51 77° 257° (WSW) 21:23:13 .
STRAND 1 26 May 21:22:35 21:27:13 35° 291° (WNW) 21:31:50 437.568
Tancredo 1 26 May 21:24:08 21:26:55 30° 330° (NNW) 21:29:42 437.200
SO-50 26 May 21:30:45 21:33:06 14° 109° (ESE) 21:35:26 436.795
HO-68 26 May 21:31:53 21:35:40 15° 271° (W) 21:39:28 435.675
AO-73 26 May 21:42:04 21:45:44 29° 264° (W) 21:49:30 145.935
PCSat 26 May 21:43:33 21:45:54 13° 320° (NW) 21:48:15 145.827
AAUSAT CUBESAT 2 26 May 21:45:16 21:47:12 13° 269° (W) 21:49:10 437.432
ISS 26 May 21:56:20 21:59:14 28° 332° (NNW) 22:02:09 437.550
ZACube-1 26 May 21:57:00 21:59:57 18° 267° (W) 22:02:58 437.345
DELFI C3 26 May 22:00:41 22:04:41 83° 259° (WSW) 22:08:41 145.870
EO-88 26 May 22:02:43 22:06:21 73° 76° (ENE) 22:10:01 145.990 - 145.960
TIGRISAT 26 May 22:06:41 22:09:42 17° 93° (E) 22:12:43 435.000
UNISAT 6 26 May 22:37:24 22:41:43 39° 98° (E) 22:46:06 437.425
PRISM 26 May 22:42:51 22:46:51 53° 101° (E) 22:50:48 437.425
FO-29 26 May 22:43:36 22:49:59 52° 100° (E) 22:57:04 435.910
LO-87 26 May 22:46:06 22:49:10 28° 71° (ENE) 22:52:14 145.935 - 145.965
M-CUBED/EXP-1 PRIME 26 May 22:47:19 22:49:22 16° 297° (WNW) 22:51:24 437.505
Tancredo 1 26 May 23:02:49 23:03:26 10° 349° (N) 23:04:03 437.200
ESTCUBE 1 26 May 23:07:02 23:11:07 34° 70° (ENE) 23:15:13 437.505/2401.250
SO-50 26 May 23:08:30 23:13:03 61° 304° (NW) 23:17:34 436.795
ISS 26 May 23:35:33 23:36:36 11° 352° (N) 23:37:39 437.550
TIGRISAT 26 May 23:42:09 23:46:33 45° 287° (WNW) 23:51:00 435.000
NANOSAT C BR1 26 May 23:51:02 23:53:06 13° 92° (E) 23:55:10 145.865
POLYITAN 1 26 May 23:55:09 23:57:55 17° 93° (E) 00:00:42 437.675
SPROUT 26 May 23:55:16 23:58:51 27° 69° (ENE) 00:02:26 437.525
50 SAT 27 May 00:00:11 00:01:43 13° 67° (ENE) 00:03:16 437.505
DUCHIFAT 1 27 May 00:01:12 00:03:46 16° 93° (E) 00:06:20 145.980
VELOX 1 27 May 00:02:08 00:06:06 34° 70° (ENE) 00:10:05 145.980
QB50P2 27 May 00:03:19 00:06:42 22° 95° (E) 00:10:05 145.880/145.840
AIST 2D 27 May 00:08:06 00:11:35 49° 99° (E) 00:15:02 435.315
UNISAT 6 27 May 00:14:45 00:18:10 21° 293° (WNW) 00:21:35 437.425
PRISM 27 May 00:20:00 00:21:39 12° 296° (WNW) 00:23:16 437.425
LO-87 27 May 00:20:29 00:22:38 15° 267° (W) 00:24:47 145.935 - 145.965
FO-29 27 May 00:29:21 00:34:46 29° 294° (WNW) 00:40:40 435.910
UKube-1 27 May 00:30:11 00:32:57 17° 65° (ENE) 00:35:43 .
DX 1 27 May 00:37:12 00:40:57 29° 69° (ENE) 00:44:42 434.975-435.025
EO-79 27 May 00:39:47 00:43:58 54° 101° (E) 00:48:08 145.935-145.965
Tancredo 1 27 May 00:39:56 00:40:21 10° 10° (N) 00:40:44 437.200
ESTCUBE 1 27 May 00:44:27 00:47:57 22° 266° (W) 00:51:28 437.505/2401.250
YUBILEINY 27 May 00:47:34 00:55:21 38° 86° (E) 01:03:11 435.215
ISS 27 May 01:12:47 01:14:16 12° 12° (NNE) 01:15:44 437.550
Oscar 19 27 May 01:18:02 01:20:26 13° 90° (E) 01:22:50 437.125/150
NANOSAT C BR1 27 May 01:24:58 01:29:04 49° 287° (WNW) 01:33:09 145.865
POLYITAN 1 27 May 01:29:51 01:33:50 39° 288° (WNW) 01:37:49 437.675
50 SAT 27 May 01:31:04 01:34:15 34° 261° (W) 01:37:27 437.505
SPROUT 27 May 01:31:18 01:34:42 23° 265° (W) 01:38:07 437.525
DUCHIFAT 1 27 May 01:35:37 01:39:36 41° 288° (WNW) 01:43:35 145.980
QB50P2 27 May 01:38:46 01:42:29 29° 290° (WNW) 01:46:09 145.880/145.840
VELOX 1 27 May 01:39:18 01:42:36 21° 266° (W) 01:45:55 145.980
BEESAT 27 May 01:46:53 01:48:07 11° 60° (ENE) 01:49:20 436.000
RS-15 27 May 01:52:20 02:03:43 52° 110° (ESE) 02:15:26 29.354- 29.394
BUGSAT 1 27 May 01:52:25 01:56:34 90° 277° (W) 02:00:45 437.445
UKube-1 27 May 02:04:32 02:08:38 42° 261° (W) 02:12:44 .
DX 1 27 May 02:13:36 02:17:06 23° 264° (W) 02:20:37 434.975-435.025
Tancredo 1 27 May 02:14:09 02:16:53 29° 29° (NNE) 02:19:37 437.200
EO-79 27 May 02:17:14 02:19:14 13° 296° (WNW) 02:21:15 145.935-145.965
Gurwin Techsat 1B 27 May 02:35:15 02:40:22 46° 99° (E) 02:45:28 435.225
YUBILEINY 27 May 02:43:43 02:51:56 45° 285° (WNW) 03:00:16 435.215
ITUPSAT 1 27 May 02:47:23 02:51:53 44° 71° (ENE) 02:56:25 437.325
ISS 27 May 02:48:22 02:51:29 38° 32° (NNE) 02:54:34 437.550
Oscar 19 27 May 02:55:05 03:00:14 69° 286° (WNW) 03:05:19 437.125/150
MOZHAYETS 4 27 May 03:00:17 03:04:21 32° 70° (ENE) 03:08:26
PCSat 27 May 03:03:26 03:05:57 13° 41° (NE) 03:08:29 145.827
BEESAT 27 May 03:20:24 03:25:10 83° 256° (WSW) 03:29:57 436.000
CUBESAT XI-V 27 May 03:48:10 03:51:26 19° 66° (ENE) 03:54:43 437.345
Tancredo 1 27 May 03:49:56 03:52:36 27° 226° (SW) 03:55:15 437.200
O/OREOS (USA 219) 27 May 03:50:02 03:54:19 41° 106° (ESE) 03:58:39 437.305
KKS-1 27 May 03:52:07 03:54:59 17° 65° (ENE) 03:57:50 437.445
ITAMSAT 1 27 May 03:57:33 04:02:23 37° 98° (E) 04:07:11 435.822/435.867
RS-15 27 May 04:04:32 04:16:17 52° 313° (NW) 04:28:19 29.354- 29.394
AO-7 27 May 04:11:02 04:19:03 48° 101° (E) 04:27:01 .
Gurwin Techsat 1B 27 May 04:15:58 04:19:59 22° 295° (WNW) 04:23:59 435.225
STARS 27 May 04:22:17 04:24:47 15° 64° (ENE) 04:27:16 437.465
ISS 27 May 04:25:13 04:27:48 22° 228° (SW) 04:30:23 437.550
ITUPSAT 1 27 May 04:26:36 04:29:54 19° 267° (W) 04:33:13 437.325
MOZHAYETS 4 27 May 04:37:47 04:41:30 24° 265° (W) 04:45:14
PCSat 27 May 04:44:51 04:50:18 75° 61° (ENE) 04:55:43 145.827
AO-85 27 May 04:46:27 04:50:38 69° 119° (ESE) 04:54:38 145.980
JUGNU 27 May 05:08:04 05:09:12 11° 180° (S) 05:10:19 437.505
BEESAT 2 27 May 05:19:50 05:22:21 16° 110° (ESE) 05:24:54 435.950
CUBESAT XI-V 27 May 05:23:58 05:28:27 44° 262° (W) 05:32:58 437.345
KKS-1 27 May 05:26:57 05:31:10 43° 261° (W) 05:35:24 437.445
O/OREOS (USA 219) 27 May 05:30:31 05:33:54 20° 303° (WNW) 05:37:18 437.305
BEESAT 3 27 May 05:37:17 05:41:14 78° 118° (ESE) 05:45:14 437.485
ITAMSAT 1 27 May 05:37:22 05:41:38 26° 294° (WNW) 05:45:54 435.822/435.867
STARS 27 May 05:56:29 06:00:42 48° 260° (W) 06:04:56 437.465
DOVE 4 27 May 05:57:07 06:00:07 19° 94° (E) 06:03:08 437.250
CUTE-I 27 May 05:58:55 06:00:06 11° 89° (E) 06:01:18 437.470
SO-50 27 May 06:01:47 06:03:55 13° 40° (NE) 06:06:03 436.795
AO-7 27 May 06:04:05 06:11:37 39° 299° (WNW) 06:19:08 .
RS-15 27 May 06:23:41 06:32:47 23° 344° (NNW) 06:41:52 29.354- 29.394
AO-85 27 May 06:29:30 06:31:25 13° 316° (NW) 06:33:18 145.980
XW-2D 27 May 06:29:56 06:33:03 23° 95° (E) 06:36:08 145.860 - 145.880
PCSat 27 May 06:30:20 06:32:59 14° 257° (WSW) 06:35:38 145.827
XW-2B 27 May 06:37:43 06:41:03 27° 96° (E) 06:44:22 145.730 - 145.750
NUDT-PHONESAT 27 May 06:47:23 06:50:39 27° 96° (E) 06:53:54 437.300
XW-2F 27 May 06:49:45 06:53:21 37° 98° (E) 06:56:54 145.980 - 146.000
XW-2C 27 May 06:51:09 06:54:49 41° 98° (E) 06:58:28 145.795 - 145.815
BEESAT 2 27 May 06:56:00 06:59:46 40° 306° (NW) 07:03:36 435.950
KAITUO 1B 27 May 06:56:27 07:00:00 36° 98° (E) 07:03:30 145.475/437.950
STRAND 1 27 May 06:58:36 07:03:11 35° 69° (ENE) 07:07:49 437.568
HO-68 27 May 07:10:24 07:14:59 18° 91° (E) 07:19:32 435.675
BEESAT 3 27 May 07:17:42 07:19:19 12° 318° (NW) 07:20:58 437.485
LilacSat-2 27 May 07:29:49 07:33:38 57° 285° (WNW) 07:37:25 437.200
DOVE 4 27 May 07:34:08 07:37:52 32° 288° (WNW) 07:41:41 437.250
CUTE-I 27 May 07:35:24 07:40:46 85° 288° (WNW) 07:46:07 437.470
SRMSAT 27 May 07:36:54 07:38:03 11° 179° (S) 07:39:12 437.500
CUTE 1.7 + AOD 2 27 May 07:40:16 07:43:33 21° 94° (E) 07:46:48 437.475
SO-50 27 May 07:40:29 07:45:01 89° 37° (NE) 07:49:33 436.795
M-CUBED/EXP-1 PRIME 27 May 07:56:32 08:00:21 34° 67° (ENE) 08:03:56 437.505
XW-2D 27 May 08:04:04 08:07:07 23° 291° (WNW) 08:10:10 145.860 - 145.880
XW-2B 27 May 08:12:15 08:15:03 19° 292° (WNW) 08:17:50 145.730 - 145.750
